Wind_Speed
24 25 25 25 24 23 23 22 22 21 22 20 16 20 22 24 26 28 31 24 21 10 22 16 12 15 14 12 16 14 3 8 12 14 10 9 2 6 9 19 5 13 21 36 35
25 26 26 25 25 24 23 23 22 21 21 20 18 16 18 22 27 31 12 8 12 13 17 14 13 11 6 12 11 7 7 9 2 6 3 14 4 7 1 6 5 7 41 38 44
29 29 28 26 25 24 23 22 22 21 20 19 19 15 14 17 25 5 7 10 7 11 18 12 13 9 11 13 14 8 10 18 2 13 18 16 11 10 3 2 15 24 42 44 44
32 31 28 26 24 23 21 20 19 19 17 17 17 14 11 10 6 13 9 7 9 6 20 17 16 6 4 8 13 6 9 12 5 18 20 13 9 5 14 17 14 37 50 45 44
33 30 29 28 28 26 25 21 17 16 15 14 13 12 9 7 23 13 20 7 7 11 14 27 20 12 5 3 9 11 6 7 14 23 29 28 22 7 23 22 15 39 43 46 41
33 29 29 30 28 26 23 18 16 12 13 13 9 10 10 12 16 13 15 23 11 12 8 26 12 20 6 6 5 2 10 21 23 20 25 16 14 5 27 16 22 39 44 47 41
34 28 28 26 24 23 19 15 11 9 9 9 6 8 10 17 16 16 13 20 17 13 16 17 21 15 13 6 11 17 6 6 12 23 11 11 11 19 25 17 23 39 49 45 37
32 27 26 21 21 22 17 16 14 9 8 4 3 5 10 13 16 20 15 14 18 13 14 15 23 23 19 13 9 3 3 2 5 9 11 9 15 20 15 12 21 36 31 29 22
32 25 22 16 15 16 16 16 14 8 11 6 2 4 11 17 15 22 10 8 9 12 14 17 17 19 8 5 4 4 4 5 4 6 5 10 10 11 17 14 17 28 36 39 30
31 25 19 12 12 13 15 12 11 5 10 4 1 5 8 16 21 11 7 3 3 11 7 16 16 9 3 4 7 4 4 3 5 2 6 11 17 5 10 11 17 29 26 34 35
29 23 19 14 12 14 12 10 9 3 12 9 13 12 25 16 19 17 4 4 3 7 3 4 7 14 14 7 9 6 2 2 3 6 4 9 12 8 10 10 16 20 21 22 26
27 21 19 14 8 12 7 4 6 8 9 12 12 21 23 15 14 11 3 7 4 4 5 3 7 6 8 7 11 10 7 4 4 9 5 11 14 4 5 6 12 27 25 28 25
25 18 19 13 7 11 5 5 9 13 1 10 9 6 11 6 5 9 3 7 4 3 7 3 5 6 8 8 12 11 7 3 5 7 3 6 7 5 1 7 11 21 30 31 36
25 14 16 17 7 15 7 10 14 15 3 7 7 2 10 2 1 3 1 3 1 6 4 4 6 7 9 9 9 12 6 6 5 4 3 7 4 4 4 4 4 14 29 33 35
23 13 12 17 16 12 11 14 14 2 4 14 6 9 4 2 6 2 2 2 4 3 4 5 3 4 7 13 12 3 5 4 4 4 3 4 2 8 9 3 8 8 20 33 34
19 10 16 17 15 12 12 16 12 5 3 7 5 11 9 5 1 6 2 4 5 3 4 8 14 4 6 7 8 1 2 1 1 4 2 6 5 5 6 9 5 11 20 31 37
15 5 13 15 12 11 12 10 4 5 5 7 7 12 11 3 3 1 2 4 2 2 2 4 9 5 4 1 3 4 5 0 1 1 6 6 2 8 5 10 15 19 27 35 36
11 11 12 13 12 10 13 4 6 2 4 8 9 16 3 3 2 3 1 3 5 3 3 3 4 7 5 4 4 5 6 5 6 5 5 5 5 9 6 4 13 30 39 38 41
16 4 19 15 14 13 4 5 2 3 5 9 13 4 3 0 3 3 4 3 4 11 6 3 4 4 7 7 7 4 5 5 5 2 3 4 7 8 7 3 7 15 20 33 43
18 6 13 24 8 7 6 2 2 3 7 3 4 2 5 7 3 5 7 5 5 12 8 4 4 6 7 4 10 3 7 5 4 2 3 4 4 8 6 12 8 10 20 21 29
15 6 15 20 2 4 2 4 4 4 4 2 5 7 6 4 9 4 5 5 11 6 11 4 2 4 4 6 5 3 4 5 4 3 1 2 6 7 11 10 12 18 30 28 32
17 3 11 17 7 3 3 3 3 2 4 2 5 9 8 14 6 7 6 6 13 6 6 8 4 3 6 5 7 5 8 7 4 4 5 2 6 4 8 15 9 25 34 39 38
18 7 12 16 3 4 7 7 4 2 3 2 3 5 9 6 6 9 9 11 18 7 7 4 1 2 3 3 3 5 5 4 4 4 3 3 5 11 16 10 7 22 24 22 31
11 4 9 8 15 2 5 6 6 3 3 2 3 6 10 7 7 7 10 7 21 8 9 5 3 5 5 5 5 3 4 6 4 4 4 4 7 14 11 13 16 22 27 27 26
11 4 6 5 7 10 7 4 6 6 2 3 3 3 4 5 8 6 8 12 13 15 10 2 1 3 4 7 5 7 7 11 4 6 4 2 4 10 12 12 17 26 31 30 30
6 6 8 11 17 6 5 5 7 11 4 5 2 7 2 3 4 7 10 7 5 8 8 7 2 3 5 5 11 7 10 7 9 4 5 5 8 9 10 22 21 24 33 32 32
8 11 5 8 6 5 3 9 11 14 9 11 7 5 4 3 23 31 22 22 16 8 4 4 3 3 4 6 2 3 11 7 10 7 7 4 7 12 9 14 16 25 31 30 31
Wind_Direction
352 348 341 336 331 325 320 315 309 308 296 288 299 311 315 305 297 292 282 290 282 254 219 217 213 191 200 224 206 197 185 219 215 206 224 301 301 58 10 131 155 174 176 176 170
352 348 342 335 327 322 320 317 315 314 312 308 289 294 311 315 308 302 325 341 303 221 201 206 205 206 227 221 209 185 203 225 168 245 274 281 305 341 311 114 29 129 156 170 163
353 350 348 344 334 325 321 321 317 316 313 307 304 281 297 313 317 149 97 82 26 211 213 208 224 268 231 232 209 207 225 232 192 256 266 278 295 349 287 200 175 173 160 168 164
356 354 355 351 345 339 331 323 317 316 313 308 310 313 276 304 290 172 148 63 27 343 214 217 241 231 235 219 223 258 244 246 298 285 280 263 327 336 285 282 233 184 174 177 172
357 356 354 352 347 337 328 322 319 317 313 315 310 330 281 269 263 245 243 276 342 347 232 211 218 212 234 225 255 246 265 267 241 252 266 279 271 267 278 283 236 179 174 179 187
357 356 355 353 352 348 336 324 319 311 309 304 306 299 279 262 315 323 255 255 268 304 334 214 214 212 261 244 188 328 240 248 255 257 263 263 284 239 264 280 214 186 189 188 195
356 356 357 2 1 354 350 351 4 328 306 295 284 283 261 266 335 326 308 274 245 267 287 230 208 206 223 295 301 265 243 259 239 244 249 274 282 245 254 270 198 195 195 191 199
355 355 357 8 16 17 20 12 1 7 358 281 278 257 257 344 334 332 327 289 249 261 262 241 226 232 246 276 325 288 143 232 251 199 246 175 257 261 245 253 194 192 196 202 194
354 353 356 11 19 20 5 346 351 356 24 75 84 255 276 340 334 328 314 283 225 240 255 248 230 216 233 203 342 252 218 199 304 184 214 182 250 272 250 243 174 181 184 187 186
354 351 355 4 6 9 3 1 338 329 4 10 285 289 292 326 334 6 336 6 297 326 250 212 208 203 191 152 209 210 191 185 185 164 195 259 249 343 274 239 168 186 177 180 189
354 353 352 357 349 348 4 5 2 333 311 258 286 262 294 316 324 314 38 151 204 337 349 202 208 199 208 211 274 311 256 211 220 252 184 250 265 244 273 254 158 168 165 159 178
353 351 353 360 357 354 351 358 344 334 303 295 299 271 308 290 322 22 32 140 152 180 319 312 231 222 186 217 231 249 273 288 288 247 169 259 269 201 258 253 185 155 158 175 186
352 350 357 353 360 352 337 288 312 322 274 299 322 346 50 136 352 334 32 224 145 137 217 286 283 227 243 210 210 233 234 238 217 343 241 265 275 201 200 92 125 144 160 165 175
352 341 344 3 353 337 303 308 317 331 44 328 346 60 9 73 310 330 340 295 358 181 233 281 257 251 238 233 216 228 209 244 269 23 231 168 265 230 172 100 104 137 154 168 175
352 339 350 340 342 349 333 317 327 351 43 322 310 331 37 59 315 271 230 271 178 195 141 237 242 239 258 238 239 271 189 225 247 219 323 288 109 250 124 128 173 172 169 176 192
355 342 358 341 349 344 327 298 322 45 321 331 300 329 337 289 197 317 6 314 282 239 247 269 286 275 236 260 244 166 8 54 68 134 217 236 149 262 179 182 169 181 180 178 185
349 339 344 344 340 349 331 300 24 54 320 298 300 322 319 261 103 341 25 311 296 151 266 298 259 234 256 10 8 94 84 20 84 118 216 158 121 240 256 165 175 188 191 192 192
350 21 353 348 2 343 320 31 46 343 298 295 309 310 285 192 118 146 279 281 246 232 298 235 298 189 187 176 163 164 157 157 168 180 248 136 209 247 220 102 181 187 187 187 191
359 300 3 1 343 0 342 47 318 304 290 307 318 297 323 345 195 150 222 240 238 185 192 271 245 153 179 170 142 140 142 172 100 261 64 220 265 317 247 244 132 175 172 183 185
355 353 6 1 10 21 57 244 258 226 291 284 293 2 316 343 270 189 192 203 242 204 185 293 325 188 197 164 210 157 162 66 23 118 242 262 245 236 224 231 164 180 195 205 189
355 352 7 349 290 20 131 240 265 318 358 338 318 300 289 299 317 268 248 235 211 211 167 164 190 297 107 182 155 113 79 40 100 133 264 322 260 217 220 226 166 195 195 187 195
355 354 355 1 41 355 328 254 255 326 344 330 284 269 289 323 290 239 251 226 187 168 168 201 177 212 190 205 149 145 150 160 131 204 208 180 275 323 279 217 169 183 186 191 188
343 308 343 11 52 328 311 310 254 249 225 258 249 324 321 306 323 303 325 284 238 185 193 191 193 58 115 354 48 147 172 136 125 79 206 149 275 5 13 63 114 193 177 170 175
346 353 336 354 356 345 336 292 311 240 213 301 283 3 346 323 294 299 321 321 328 293 159 104 159 151 194 205 166 163 157 157 131 122 205 236 314 356 15 64 75 81 120 131 148
11 355 16 307 326 326 303 274 326 331 287 4 349 328 354 303 314 353 331 337 334 9 347 55 68 345 275 206 180 203 234 164 158 168 148 267 4 356 81 71 82 95 99 101 91
19 356 321 288 290 311 345 338 320 332 292 306 242 299 275 285 320 308 332 342 272 328 343 329 283 24 328 274 195 208 232 205 154 175 127 101 74 65 95 98 92 89 95 93 98
8 342 292 285 312 343 332 317 338 351 322 339 326 335 306 335 305 287 271 257 250 287 324 300 32 38 288 345 299 307 243 196 179 188 145 109 129 97 61 71 72 92 92 92 98
Height
1518 1514 1510 1505 1502 1498 1494 1491 1488 1485 1483 1482 1481 1480 1478 1476 1473 1471 1465 1465 1466 1470 1472 1473 1475 1477 1478 1479 1482 1483 1491 1488 1476 1475 1462 1462 1469 1474 1471 1470 1473 1469 1473 1475 1478
1516 1511 1506 1502 1497 1493 1490 1487 1484 1482 1480 1478 1477 1477 1476 1474 1469 1464 1462 1460 1459 1464 1467 1470 1472 1475 1475 1474 1475 1474 1479 1470 1463 1466 1466 1464 1471 1475 1471 1472 1476 1476 1479 1486 1480
1512 1507 1502 1498 1493 1490 1486 1483 1481 1479 1476 1474 1472 1472 1473 1471 1467 1458 1458 1456 1459 1461 1463 1468 1470 1473 1471 1469 1466 1462 1458 1461 1462 1466 1466 1463 1468 1478 1470 1476 1471 1473 1476 1479 1476
1509 1503 1498 1494 1490 1486 1483 1480 1478 1476 1474 1472 1471 1470 1470 1471 1470 1455 1456 1455 1455 1458 1462 1464 1467 1470 1467 1464 1461 1463 1457 1462 1463 1463 1462 1460 1470 1477 1471 1469 1469 1468 1467 1470 1470
1506 1501 1496 1492 1487 1483 1479 1476 1474 1472 1471 1470 1469 1468 1468 1469 1455 1456 1452 1451 1453 1455 1456 1458 1462 1466 1465 1460 1460 1457 1459 1459 1461 1461 1459 1461 1460 1474 1467 1467 1467 1466 1469 1471 1472
1504 1498 1493 1489 1483 1479 1474 1471 1470 1469 1469 1467 1467 1467 1466 1466 1450 1449 1448 1448 1450 1453 1453 1455 1458 1460 1461 1459 1459 1453 1455 1456 1455 1456 1458 1456 1458 1466 1456 1463 1465 1464 1464 1465 1469
1502 1497 1492 1487 1482 1477 1472 1469 1467 1465 1464 1464 1464 1464 1464 1455 1449 1447 1446 1444 1447 1449 1451 1452 1455 1458 1457 1455 1454 1450 1455 1452 1450 1453 1452 1457 1458 1449 1452 1457 1462 1461 1459 1461 1466
1500 1495 1491 1486 1482 1477 1473 1471 1468 1465 1463 1461 1462 1462 1455 1449 1446 1444 1443 1441 1443 1446 1448 1448 1452 1457 1457 1453 1451 1450 1449 1458 1444 1445 1448 1456 1456 1432 1448 1451 1452 1455 1461 1464 1467
1499 1493 1489 1486 1482 1478 1475 1471 1468 1466 1463 1461 1461 1462 1452 1446 1443 1440 1439 1437 1441 1443 1444 1443 1450 1452 1453 1456 1459 1452 1457 1455 1449 1441 1446 1447 1443 1436 1445 1447 1451 1457 1455 1457 1462
1497 1492 1487 1484 1481 1478 1474 1470 1467 1465 1462 1461 1461 1464 1449 1446 1442 1438 1437 1438 1440 1441 1439 1440 1444 1446 1450 1455 1459 1454 1453 1447 1450 1440 1441 1442 1437 1441 1441 1443 1445 1450 1453 1452 1454
1495 1490 1485 1482 1480 1477 1474 1469 1469 1466 1462 1459 1457 1453 1446 1445 1442 1438 1437 1438 1441 1441 1441 1437 1446 1442 1441 1444 1443 1442 1441 1443 1441 1435 1441 1440 1439 1441 1438 1441 1442 1449 1450 1450 1451
1493 1489 1484 1481 1478 1475 1472 1470 1466 1467 1461 1453 1451 1449 1443 1444 1443 1438 1439 1441 1443 1447 1443 1442 1438 1438 1439 1442 1443 1441 1444 1445 1438 1432 1440 1437 1436 1436 1435 1436 1437 1444 1448 1451 1452
1492 1488 1483 1479 1476 1474 1471 1468 1465 1464 1463 1452 1449 1447 1443 1445 1445 1441 1440 1440 1441 1442 1445 1442 1438 1436 1435 1437 1439 1439 1443 1443 1444 1435 1435 1439 1444 1438 1434 1437 1440 1443 1446 1449 1450
1490 1486 1482 1478 1476 1472 1468 1466 1465 1461 1467 1456 1449 1448 1446 1444 1444 1441 1441 1442 1438 1443 1442 1440 1435 1434 1434 1434 1434 1439 1433 1437 1439 1449 1460 1436 1464 1439 1438 1442 1444 1444 1445 1447 1450
1487 1484 1481 1475 1475 1471 1469 1465 1462 1462 1479 1455 1450 1446 1445 1447 1446 1442 1441 1441 1440 1438 1440 1437 1433 1434 1434 1430 1428 1434 1430 1435 1439 1447 1447 1443 1456 1440 1435 1447 1445 1445 1445 1446 1445
1486 1483 1479 1477 1474 1471 1468 1464 1462 1469 1477 1458 1451 1447 1444 1445 1444 1443 1442 1442 1439 1437 1437 1435 1431 1432 1426 1424 1427 1427 1431 1436 1439 1450 1465 1447 1451 1444 1437 1435 1441 1443 1443 1446 1448
1485 1482 1478 1475 1473 1469 1467 1465 1473 1477 1462 1462 1452 1445 1444 1441 1442 1443 1443 1443 1442 1443 1443 1432 1428 1424 1424 1427 1425 1429 1443 1461 1464 1467 1467 1442 1448 1438 1420 1422 1423 1430 1437 1440 1446
1484 1482 1479 1475 1472 1469 1467 1467 1476 1468 1466 1457 1452 1444 1443 1439 1441 1443 1444 1444 1437 1440 1442 1441 1436 1423 1419 1426 1430 1435 1443 1458 1461 1472 1451 1439 1452 1425 1414 1418 1419 1424 1426 1434 1439
1483 1481 1478 1475 1472 1469 1468 1481 1478 1473 1466 1460 1452 1446 1438 1437 1440 1442 1443 1439 1432 1432 1443 1434 1421 1411 1415 1418 1425 1431 1444 1438 1449 1448 1455 1448 1430 1414 1410 1412 1417 1422 1429 1433 1435
1482 1479 1477 1474 1470 1470 1472 1475 1470 1467 1464 1462 1459 1452 1444 1438 1438 1442 1438 1427 1428 1422 1425 1426 1426 1409 1411 1417 1419 1423 1427 1449 1462 1466 1462 1446 1438 1430 1415 1410 1416 1420 1422 1430 1433
1482 1479 1478 1474 1472 1471 1483 1476 1467 1464 1462 1463 1461 1455 1445 1446 1442 1435 1429 1419 1417 1415 1421 1426 1432 1417 1411 1418 1422 1425 1436 1439 1451 1461 1465 1466 1445 1412 1408 1404 1411 1414 1413 1420 1430
1485 1483 1478 1475 1476 1475 1477 1471 1467 1463 1462 1460 1459 1455 1450 1446 1439 1437 1424 1415 1407 1410 1419 1419 1425 1429 1420 1409 1410 1417 1430 1438 1459 1454 1458 1450 1444 1403 1399 1393 1397 1402 1405 1413 1425
1490 1485 1480 1476 1488 1485 1476 1469 1464 1462 1460 1457 1456 1453 1451 1447 1444 1430 1420 1409 1406 1408 1412 1411 1422 1433 1422 1417 1415 1420 1422 1429 1436 1443 1448 1452 1433 1412 1398 1390 1395 1399 1403 1416 1425
1494 1492 1484 1480 1482 1482 1480 1472 1465 1460 1458 1457 1456 1452 1451 1448 1440 1433 1427 1414 1411 1405 1401 1405 1417 1420 1436 1422 1419 1419 1419 1425 1431 1452 1449 1438 1433 1424 1415 1404 1402 1406 1407 1414 1422
1501 1501 1499 1494 1484 1483 1481 1473 1469 1463 1458 1457 1455 1454 1453 1450 1441 1439 1431 1424 1412 1413 1409 1408 1418 1413 1411 1408 1407 1410 1412 1421 1428 1430 1434 1430 1436 1429 1421 1418 1412 1412 1416 1421 1427
1506 1506 1501 1493 1487 1483 1478 1475 1472 1466 1460 1456 1456 1454 1451 1451 1450 1445 1445 1436 1431 1418 1421 1415 1418 1412 1411 1401 1403 1408 1406 1411 1420 1423 1423 1425 1434 1434 1436 1427 1424 1422 1419 1426 1433
1507 1505 1502 1493 1488 1486 1483 1480 1474 1470 1461 1456 1455 1453 1450 1448 1444 1436 1439 1436 1432 1432 1427 1425 1421 1422 1421 1410 1402 1419 1407 1406 1409 1409 1412 1424 1435 1438 1441 1437 1433 1429 1430 1435 1440